OBJECT D, 58823

Orbit data source: Space-Track

You're viewing an Uncataloged Satellite

Recently launched and/or uncataloged satellites may have evolving metadata. Metadata may include but not limited to: Owner, Maufacturer, Bus, Motor, and Mission.

OBJECT D, 58823 is a Chinese satellite in SSO that was launched on Tue, 23 Jan 2024 UTC via a LIJIAN-1 launch vehicle from the Jiuquan Satellite Launch Center, China (JSC). Unknown objects in Earth's orbit typically refer to objects detected orbiting the Earth but have not yet been identified or cataloged. These objects could be anything from previously untracked satellites, spent rocket stages, debris from satellite collisions, or even natural meteoroids temporarily captured by Earth's gravity.

Loading next visibility...
Identifier
58823, 2024-016D
Orbit
SSO
Country
Flag of CNCN / PRC
Related business
None
Manufacturer
Unknown
Mission
Operational Commercial Imaging
Bus & Motor
Unknown
Mass
Unknown
Launch date (UTC)
2024-01-23 (2 years ago)
Launch vehicle
LIJIAN-1
Launch site
Jiuquan Satellite Launch Center, China (JSC)
Object type
Unknown
Shape & HBR
Box + 3 Pan, 3.0 m
Radar Cross Section
3.533 m², Large (>1 m²)

Expand to show TLE details & history
Last TLE update: 22 hours ago

TLE from 22 hours ago
0 OBJECT D
1 58823U 24016D   26172.49627944  .00028804  00000-0  46604-3 0  9997
2 58823  97.4315 262.6344 0006154  66.9719 293.2182 15.52770694134447
Epoch: 2026-06-21T11:54Z
TLE epoch observation values (Epoch: 2026-06-21T11:54:38.543Z)
Latitude
-0.00005°
Longitude
174.2781°
Altitude
410.13 km
Speed
7.666 km/s
True Right ascension
17h 30m 32s
True Declination
0° 00' 00"
Sunlit
Object was in full shadow at epoch
Visualization orbit readout
Latitude
Unknown
Longitude
Unknown
Altitude
Unknown
Speed
Unknown
Apparent Right ascension
Unknown
Apparent Declination
Unknown
Sunlit
N/A
Visualization observer readout
Local Sidereal Time
21:24:15
Azimuth
Unknown
Elevation
Unknown
Doppler factor
Unknown
Orbital elements
Apogee altitude
409.739 km
Perigee altitude
401.389 km
Semi-major axis
6,783.701 km
Eccentricity
0.00062
Inclination
97.4315°
RAAN
262.6344°
Arg. of periapsis
66.9719°
True anomaly
293.15337°
Mean anomaly
293.2182°
Eccentric anomaly
293.18579°
Mean motion
3.88457 °/min
Orbital period
92.67 mins
BSTAR
0.00046604
Loading maneuver chart data...
Computing Atmospheric mass density...
Loading historical data...
Loading historical data...
Loading historical data...
Loading historical data...
Loading historical data...
Loading historical data...
Loading historical data...
Other satellites on launch #16 in the year 2024 (2024-01-23 UTC)

Documentation

Showing up to 5 results
|